"Data set title: Gaging station water sample data. Usage: Event based table used with water chemistry collection from 08-Jun-2016 to 30-Sep-2016",,,,,,,,,,,,
,,,,,,,,,,,,,
"Site","Date","RecNum","SiteID","Flag_SiteID","LOGGERID","PROGID","VNOTCH_INST_0_0_01","Flag_VNOTCH_INST_0_0_01","SAMPLE_INST_0_0_01","Flag_SAMPLE_INST_0_0_01","STAGE_INST_0_0_01","Flag_STAGE_INST_0_0_01"
"","yyyy-MM-dd HH:mm:ss","count","","none","none","none","none","none","count","none","ft","none"
"nominal","datetime","nominal","data","code","nominal","nominal","data","code","data","code","data","code"
"GSWS09_121",2016-06-08 13:48:45,0,109.00,"",121,25598.0,0,"",1,"",0.0070,""
"GSWS09_121",2016-06-08 13:51:15,1,109.00,"",121,25598.0,0,"",2,"",0.0070,""
"GSWS09_121",2016-06-08 14:39:00,2,109.00,"",121,25598.0,0,"",1,"",0.0070,""
"GSWS09_121",2016-06-09 03:57:00,3,109.00,"",121,25598.0,0,"",1,"",0.0070,""
"GSWS09_121",2016-06-09 17:15:00,4,109.00,"",121,25598.0,0,"",2,"",0.0070,""
"GSWS09_121",2016-06-10 06:33:00,5,109.00,"",121,25598.0,0,"",3,"",0.0080,""
"GSWS09_121",2016-06-10 19:51:00,6,109.00,"",121,25598.0,0,"",4,"",0.0090,""
"GSWS09_121",2016-06-11 09:09:00,7,109.00,"",121,25598.0,0,"",5,"",0.0090,""
"GSWS09_121",2016-06-11 22:27:00,8,109.00,"",121,25598.0,0,"",6,"",0.0080,""
"GSWS09_121",2016-06-12 11:45:00,9,109.00,"",121,25598.0,0,"",7,"",0.0080,""
"GSWS09_121",2016-06-13 01:03:00,10,109.00,"",121,25598.0,0,"",8,"",0.0070,""
"GSWS09_121",2016-06-13 14:21:00,11,109.00,"",121,25598.0,0,"",9,"",0.0080,""
"GSWS09_121",2016-06-14 03:39:00,12,109.00,"",121,25598.0,0,"",10,"",0.0070,""
"GSWS09_121",2016-06-14 16:57:00,13,109.00,"",121,25598.0,0,"",1,"",0.0140,""
"GSWS09_121",2016-06-15 06:15:00,14,109.00,"",121,25598.0,0,"",2,"",0.0110,""
"GSWS09_121",2016-06-15 19:33:00,15,109.00,"",121,25598.0,0,"",3,"",0.0090,""
"GSWS09_121",2016-06-16 08:51:00,16,109.00,"",121,25598.0,0,"",4,"",0.0080,""
"GSWS09_121",2016-06-16 22:09:00,17,109.00,"",121,25598.0,0,"",5,"",0.0080,""
"GSWS09_121",2016-06-17 11:27:00,18,109.00,"",121,25598.0,0,"",6,"",0.0080,""
"GSWS09_121",2016-06-18 00:45:00,19,109.00,"",121,25598.0,0,"",7,"",0.0080,""
"GSWS09_121",2016-06-18 14:03:00,20,109.00,"",121,25598.0,0,"",8,"",0.0080,""
"GSWS09_121",2016-06-19 03:21:00,21,109.00,"",121,25598.0,0,"",9,"",0.0080,""
"GSWS09_121",2016-06-19 16:39:00,22,109.00,"",121,25598.0,0,"",10,"",0.0080,""
"GSWS09_121",2016-06-20 05:57:00,23,109.00,"",121,25598.0,0,"",11,"",0.0070,""
"GSWS09_121",2016-06-20 19:15:00,24,109.00,"",121,25598.0,0,"",12,"",0.0060,""
"GSWS09_121",2016-06-21 08:33:00,25,109.00,"",121,25598.0,0,"",13,"",0.0070,""
"GSWS09_121",2016-06-21 21:51:00,26,109.00,"",121,25598.0,0,"",14,"",0.0050,""
"GSWS09_121",2016-06-22 11:09:00,27,109.00,"",121,25598.0,0,"",15,"",0.0070,""
"GSWS09_121",2016-06-23 00:27:00,28,109.00,"",121,25598.0,0,"",16,"",0.0050,""
"GSWS09_121",2016-06-23 13:45:00,29,109.00,"",121,25598.0,0,"",17,"",0.0060,""
"GSWS09_121",2016-06-24 03:03:00,30,109.00,"",121,25598.0,0,"",18,"",0.0060,""
"GSWS09_121",2016-06-24 16:21:00,31,109.00,"",121,25598.0,0,"",19,"",0.0060,""
"GSWS09_121",2016-06-25 05:39:00,32,109.00,"",121,25598.0,0,"",20,"",0.0060,""
"GSWS09_121",2016-06-25 18:57:00,33,109.00,"",121,25598.0,0,"",21,"",0.0050,""
"GSWS09_121",2016-06-26 08:15:00,34,109.00,"",121,25598.0,0,"",22,"",0.0060,""
"GSWS09_121",2016-06-26 21:33:00,35,109.00,"",121,25598.0,0,"",23,"",0.0040,""
"GSWS09_121",2016-06-27 10:51:00,36,109.00,"",121,25598.0,0,"",24,"",0.0050,""
"GSWS09_121",2016-06-28 00:09:00,37,109.00,"",121,25598.0,0,"",25,"",0.0040,""
"GSWS09_121",2016-06-28 13:27:00,38,109.00,"",121,25598.0,0,"",26,"",0.0050,""
"GSWS09_121",2016-06-28 15:03:45,39,109.00,"",121,25598.0,0,"",27,"",0.0040,""
"GSWS09_121",2016-06-28 17:25:15,40,109.00,"",121,25598.0,1,"",27,"",0.0440,""
"GSWS09_121",2016-06-29 06:43:15,41,109.00,"",121,25598.0,1,"",28,"",0.0870,""
"GSWS09_121",2016-06-29 20:01:15,42,109.00,"",121,25598.0,1,"",29,"",0.0720,""
"GSWS09_121",2016-06-30 09:19:15,43,109.00,"",121,25598.0,1,"",30,"",0.0890,""
"GSWS09_121",2016-06-30 22:37:15,44,109.00,"",121,25598.0,1,"",31,"",0.0700,""
"GSWS09_121",2016-07-01 11:55:15,45,109.00,"",121,25598.0,1,"",32,"",0.0870,""
"GSWS09_121",2016-07-02 01:13:15,46,109.00,"",121,25598.0,1,"",33,"",0.0710,""
"GSWS09_121",2016-07-02 14:31:15,47,109.00,"",121,25598.0,1,"",34,"",0.0770,""
"GSWS09_121",2016-07-03 03:49:15,48,109.00,"",121,25598.0,1,"",35,"",0.0740,""
"GSWS09_121",2016-07-03 17:07:15,49,109.00,"",121,25598.0,1,"",36,"",0.0680,""
"GSWS09_121",2016-07-04 06:25:15,50,109.00,"",121,25598.0,1,"",37,"",0.0770,""
"GSWS09_121",2016-07-04 19:43:15,51,109.00,"",121,25598.0,1,"",38,"",0.0650,""
"GSWS09_121",2016-07-05 09:01:15,52,109.00,"",121,25598.0,1,"",39,"",0.0800,""
"GSWS09_121",2016-07-05 14:01:45,53,109.00,"",121,25598.0,1,"",40,"",0.0740,""
"GSWS09_121",2016-07-05 22:19:15,54,109.00,"",121,25598.0,1,"",1,"",0.0620,""
"GSWS09_121",2016-07-06 11:37:15,55,109.00,"",121,25598.0,1,"",2,"",0.0780,""
"GSWS09_121",2016-07-07 00:55:15,56,109.00,"",121,25598.0,1,"",3,"",0.0610,""
"GSWS09_121",2016-07-07 14:13:15,57,109.00,"",121,25598.0,1,"",4,"",0.0720,""
"GSWS09_121",2016-07-08 03:31:15,58,109.00,"",121,25598.0,1,"",5,"",0.0810,""
"GSWS09_121",2016-07-08 16:49:15,59,109.00,"",121,25598.0,1,"",6,"",0.0950,""
"GSWS09_121",2016-07-08 23:27:15,60,109.00,"",121,25598.0,1,"",7,"",0.1320,""
"GSWS09_121",2016-07-09 06:05:15,61,109.00,"",121,25598.0,1,"",8,"",0.1300,""
"GSWS09_121",2016-07-09 12:43:15,62,109.00,"",121,25598.0,1,"",9,"",0.1060,""
"GSWS09_121",2016-07-10 02:01:15,63,109.00,"",121,25598.0,1,"",10,"",0.0870,""
"GSWS09_121",2016-07-10 08:39:15,64,109.00,"",121,25598.0,1,"",11,"",0.1070,""
"GSWS09_121",2016-07-10 15:17:15,65,109.00,"",121,25598.0,1,"",12,"",0.1280,""
"GSWS09_121",2016-07-10 21:55:15,66,109.00,"",121,25598.0,1,"",13,"",0.1260,""
"GSWS09_121",2016-07-11 04:33:15,67,109.00,"",121,25598.0,1,"",14,"",0.1210,""
"GSWS09_121",2016-07-11 11:11:15,68,109.00,"",121,25598.0,1,"",15,"",0.1110,""
"GSWS09_121",2016-07-12 00:29:30,69,109.00,"",121,61530.0,1,"",16,"",0.0870,""
"GSWS09_121",2016-07-12 13:47:30,70,109.00,"",121,61530.0,1,"",17,"",0.0870,""
"GSWS09_121",2016-07-13 03:05:30,71,109.00,"",121,61530.0,1,"",18,"",0.0800,""
"GSWS09_121",2016-07-13 16:23:30,72,109.00,"",121,61530.0,1,"",19,"",0.0770,""
"GSWS09_121",2016-07-14 05:41:30,73,109.00,"",121,61530.0,1,"",20,"",0.0780,""
"GSWS09_121",2016-07-14 18:59:30,74,109.00,"",121,61530.0,1,"",21,"",0.0680,""
"GSWS09_121",2016-07-15 08:17:30,75,109.00,"",121,61530.0,1,"",22,"",0.0780,""
"GSWS09_121",2016-07-15 21:35:30,76,109.00,"",121,61530.0,1,"",23,"",0.0640,""
"GSWS09_121",2016-07-16 10:53:30,77,109.00,"",121,61530.0,1,"",24,"",0.0780,""
"GSWS09_121",2016-07-17 00:11:30,78,109.00,"",121,61530.0,1,"",25,"",0.0650,""
"GSWS09_121",2016-07-17 13:29:30,79,109.00,"",121,61530.0,1,"",26,"",0.0740,""
"GSWS09_121",2016-07-18 02:47:30,80,109.00,"",121,61530.0,1,"",27,"",0.0670,""
"GSWS09_121",2016-07-18 16:05:30,81,109.00,"",121,61530.0,1,"",28,"",0.0700,""
"GSWS09_121",2016-07-19 05:23:30,82,109.00,"",121,61530.0,1,"",29,"",0.0710,""
"GSWS09_121",2016-07-19 18:41:30,83,109.00,"",121,61530.0,1,"",30,"",0.0610,""
"GSWS09_121",2016-07-20 07:59:30,84,109.00,"",121,61530.0,1,"",31,"",0.0710,""
"GSWS09_121",2016-07-20 21:17:30,85,109.00,"",121,61530.0,1,"",32,"",0.0570,""
"GSWS09_121",2016-07-21 10:35:30,86,109.00,"",121,61530.0,1,"",33,"",0.0720,""
"GSWS09_121",2016-07-21 23:53:30,87,109.00,"",121,61530.0,1,"",34,"",0.0550,""
"GSWS09_121",2016-07-22 13:11:30,88,109.00,"",121,61530.0,1,"",35,"",0.0660,""
"GSWS09_121",2016-07-23 02:29:30,89,109.00,"",121,61530.0,1,"",36,"",0.0530,""
"GSWS09_121",2016-07-23 15:47:30,90,109.00,"",121,61530.0,1,"",37,"",0.0610,""
"GSWS09_121",2016-07-24 05:05:30,91,109.00,"",121,61530.0,1,"",38,"",0.0570,""
"GSWS09_121",2016-07-24 18:23:30,92,109.00,"",121,61530.0,1,"",39,"",0.0550,""
"GSWS09_121",2016-07-25 07:41:30,93,109.00,"",121,61530.0,1,"",40,"",0.0610,""
"GSWS09_121",2016-07-25 20:59:30,94,109.00,"",121,61530.0,1,"",41,"",0.0520,""
"GSWS09_121",2016-07-26 09:47:00,95,109.00,"",121,61530.0,1,"",42,"",0.0630,""
"GSWS09_121",2016-07-26 10:17:30,96,109.00,"",121,61530.0,1,"",43,"",0.0650,""
"GSWS09_121",2016-07-26 23:35:30,97,109.00,"",121,61530.0,1,"",1,"",0.0500,""
"GSWS09_121",2016-07-27 12:53:30,98,109.00,"",121,61530.0,1,"",2,"",0.0610,""
"GSWS09_121",2016-07-28 02:11:30,99,109.00,"",121,61530.0,1,"",3,"",0.0480,""
"GSWS09_121",2016-07-28 15:29:30,100,109.00,"",121,61530.0,1,"",4,"",0.0550,""
"GSWS09_121",2016-07-29 04:47:30,101,109.00,"",121,61530.0,1,"",5,"",0.0460,""
"GSWS09_121",2016-07-29 18:05:30,102,109.00,"",121,61530.0,1,"",6,"",0.0480,""
"GSWS09_121",2016-07-30 07:23:30,103,109.00,"",121,61530.0,1,"",7,"",0.0440,""
"GSWS09_121",2016-07-30 20:41:30,104,109.00,"",121,61530.0,1,"",8,"",0.0460,""
"GSWS09_121",2016-07-31 09:59:30,105,109.00,"",121,61530.0,1,"",9,"",0.0450,""
"GSWS09_121",2016-07-31 23:17:30,106,109.00,"",121,61530.0,1,"",10,"",0.0440,""
"GSWS09_121",2016-08-01 12:35:30,107,109.00,"",121,61530.0,1,"",11,"",0.0530,""
"GSWS09_121",2016-08-02 01:53:30,108,109.00,"",121,61530.0,1,"",12,"",0.0430,""
"GSWS09_121",2016-08-02 15:11:30,109,109.00,"",121,61530.0,1,"",13,"",0.0480,""
"GSWS09_121",2016-08-03 04:29:30,110,109.00,"",121,61530.0,1,"",14,"",0.0420,""
"GSWS09_121",2016-08-03 17:47:30,111,109.00,"",121,61530.0,1,"",15,"",0.0450,""
"GSWS09_121",2016-08-04 07:05:30,112,109.00,"",121,61530.0,1,"",16,"",0.0420,""
"GSWS09_121",2016-08-04 20:23:30,113,109.00,"",121,61530.0,1,"",17,"",0.0420,""
"GSWS09_121",2016-08-05 09:41:30,114,109.00,"",121,61530.0,1,"",18,"",0.0400,""
"GSWS09_121",2016-08-05 22:59:30,115,109.00,"",121,61530.0,1,"",19,"",0.0410,""
"GSWS09_121",2016-08-06 12:17:30,116,109.00,"",121,61530.0,1,"",20,"",0.0400,""
"GSWS09_121",2016-08-07 01:35:30,117,109.00,"",121,61530.0,1,"",21,"",0.0400,""
"GSWS09_121",2016-08-07 14:53:30,118,109.00,"",121,61530.0,1,"",22,"",0.0440,""
"GSWS09_121",2016-08-08 04:11:30,119,109.00,"",121,61530.0,1,"",23,"",0.0400,""
"GSWS09_121",2016-08-08 15:08:45,120,109.00,"",121,61530.0,1,"",24,"",0.0480,""
"GSWS09_121",2016-08-08 17:29:30,121,109.00,"",121,61530.0,1,"",25,"",0.0480,""
"GSWS09_121",2016-08-09 06:47:30,122,109.00,"",121,61530.0,1,"",26,"",0.0490,""
"GSWS09_121",2016-08-09 20:05:30,123,109.00,"",121,61530.0,1,"",27,"",0.0490,""
"GSWS09_121",2016-08-10 09:23:30,124,109.00,"",121,61530.0,1,"",28,"",0.0500,""
"GSWS09_121",2016-08-10 22:41:30,125,109.00,"",121,61530.0,1,"",29,"",0.0440,""
"GSWS09_121",2016-08-11 11:59:30,126,109.00,"",121,61530.0,1,"",30,"",0.0440,""
"GSWS09_121",2016-08-12 01:17:30,127,109.00,"",121,61530.0,1,"",31,"",0.0400,""
"GSWS09_121",2016-08-12 14:35:30,128,109.00,"",121,61530.0,1,"",32,"",0.0360,""
"GSWS09_121",2016-08-13 03:53:30,129,109.00,"",121,61530.0,1,"",33,"",0.0360,""
"GSWS09_121",2016-08-13 17:11:30,130,109.00,"",121,61530.0,1,"",34,"",0.0300,""
"GSWS09_121",2016-08-14 06:29:30,131,109.00,"",121,61530.0,1,"",35,"",0.0330,""
"GSWS09_121",2016-08-14 19:47:30,132,109.00,"",121,61530.0,1,"",36,"",0.0290,""
"GSWS09_121",2016-08-15 09:05:30,133,109.00,"",121,61530.0,1,"",37,"",0.0300,""
"GSWS09_121",2016-08-15 22:23:30,134,109.00,"",121,61530.0,1,"",38,"",0.0310,""
"GSWS09_121",2016-08-16 11:41:30,135,109.00,"",121,61530.0,1,"",39,"",0.0270,""
"GSWS09_121",2016-08-16 12:07:00,136,109.00,"",121,61530.0,1,"",40,"",0.0260,""
"GSWS09_121",2016-08-17 00:59:30,137,109.00,"",121,61530.0,1,"",1,"",0.0340,""
"GSWS09_121",2016-08-17 14:17:30,138,109.00,"",121,61530.0,1,"",2,"",0.0210,""
"GSWS09_121",2016-08-18 03:35:30,139,109.00,"",121,61530.0,1,"",3,"",0.0310,""
"GSWS09_121",2016-08-18 16:53:30,140,109.00,"",121,61530.0,1,"",4,"",0.0160,""
"GSWS09_121",2016-08-19 06:11:30,141,109.00,"",121,61530.0,1,"",5,"",0.0270,""
"GSWS09_121",2016-08-19 19:29:30,142,109.00,"",121,61530.0,1,"",6,"",0.0120,""
"GSWS09_121",2016-08-20 08:47:30,143,109.00,"",121,61530.0,1,"",7,"",0.0220,""
"GSWS09_121",2016-08-20 22:05:30,144,109.00,"",121,61530.0,1,"",8,"",0.0060,""
"GSWS09_121",2016-08-21 11:23:30,145,109.00,"",121,61530.0,1,"",9,"",0.0220,""
"GSWS09_121",2016-08-22 13:59:30,146,109.00,"",121,61530.0,1,"",10,"",0.0140,""
"GSWS09_121",2016-08-23 13:42:00,147,109.00,"",121,61530.0,1,"",11,"",0.0180,""
"GSWS09_121",2016-08-23 16:35:30,148,109.00,"",121,61530.0,1,"",12,"",0.0100,""
"GSWS09_121",2016-08-24 05:53:30,149,109.00,"",121,61530.0,1,"",13,"",0.0270,""
"GSWS09_121",2016-08-24 19:11:30,150,109.00,"",121,61530.0,1,"",14,"",0.0050,""
"GSWS09_121",2016-08-25 08:29:30,151,109.00,"",121,61530.0,1,"",15,"",0.0250,""
"GSWS09_121",2016-08-26 11:05:30,152,109.00,"",121,61530.0,1,"",16,"",0.0190,""
"GSWS09_121",2016-08-27 13:41:30,153,109.00,"",121,61530.0,1,"",17,"",0.0160,""
"GSWS09_121",2016-08-28 16:17:30,154,109.00,"",121,61530.0,1,"",18,"",0.0140,""
"GSWS09_121",2016-08-29 18:53:30,155,109.00,"",121,61530.0,1,"",19,"",0.0060,""
"GSWS09_121",2016-08-30 08:11:30,156,109.00,"",121,61530.0,1,"",20,"",0.0230,""
"GSWS09_121",2016-08-31 10:47:30,157,109.00,"",121,61530.0,1,"",20,"",0.0250,""
"GSWS09_121",2016-09-01 00:05:30,158,109.00,"",121,61530.0,1,"",21,"",0.0310,""
"GSWS09_121",2016-09-01 13:23:30,159,109.00,"",121,61530.0,1,"",22,"",0.0230,""
"GSWS09_121",2016-09-02 02:41:30,160,109.00,"",121,61530.0,1,"",23,"",0.0320,""
"GSWS09_121",2016-09-02 15:59:30,161,109.00,"",121,61530.0,1,"",24,"",0.0490,""
"GSWS09_121",2016-09-03 05:17:30,162,109.00,"",121,61530.0,1,"",25,"",0.0430,""
"GSWS09_121",2016-09-03 18:35:30,163,109.00,"",121,61530.0,1,"",26,"",0.0430,""
"GSWS09_121",2016-09-04 07:53:30,164,109.00,"",121,61530.0,1,"",27,"",0.0360,""
"GSWS09_121",2016-09-04 21:11:30,165,109.00,"",121,61530.0,1,"",28,"",0.0400,""
"GSWS09_121",2016-09-05 10:29:30,166,109.00,"",121,61530.0,1,"",29,"",0.0410,""
"GSWS09_121",2016-09-05 23:47:30,167,109.00,"",121,61530.0,1,"",30,"",0.0380,""
"GSWS09_121",2016-09-06 13:05:30,168,109.00,"",121,61530.0,1,"",31,"",0.0400,""
"GSWS09_121",2016-09-07 02:23:30,169,109.00,"",121,61530.0,1,"",1,"",0.0570,""
"GSWS09_121",2016-09-07 15:41:30,170,109.00,"",121,61530.0,1,"",2,"",0.0590,""
"GSWS09_121",2016-09-08 04:59:30,171,109.00,"",121,61530.0,1,"",3,"",0.0480,""
"GSWS09_121",2016-09-08 18:17:30,172,109.00,"",121,61530.0,1,"",4,"",0.0470,""
"GSWS09_121",2016-09-09 07:35:30,173,109.00,"",121,61530.0,1,"",5,"",0.0400,""
"GSWS09_121",2016-09-09 20:53:30,174,109.00,"",121,61530.0,1,"",6,"",0.0380,""
"GSWS09_121",2016-09-10 10:11:30,175,109.00,"",121,61530.0,1,"",7,"",0.0320,""
"GSWS09_121",2016-09-10 23:29:30,176,109.00,"",121,61530.0,1,"",8,"",0.0310,""
"GSWS09_121",2016-09-11 12:47:30,177,109.00,"",121,61530.0,1,"",9,"",0.0250,""
"GSWS09_121",2016-09-12 02:05:30,178,109.00,"",121,61530.0,1,"",10,"",0.0290,""
"GSWS09_121",2016-09-12 15:23:30,179,109.00,"",121,61530.0,1,"",11,"",0.0170,""
"GSWS09_121",2016-09-13 04:41:30,180,109.00,"",121,61530.0,1,"",12,"",0.0270,""
"GSWS09_121",2016-09-13 17:59:30,181,109.00,"",121,61530.0,1,"",13,"",0.0130,""
"GSWS09_121",2016-09-14 07:17:30,182,109.00,"",121,61530.0,1,"",14,"",0.0250,""
"GSWS09_121",2016-09-14 20:35:30,183,109.00,"",121,61530.0,1,"",15,"",0.0120,""
"GSWS09_121",2016-09-15 09:53:30,184,109.00,"",121,61530.0,1,"",16,"",0.0260,""
"GSWS09_121",2016-09-15 23:11:30,185,109.00,"",121,61530.0,1,"",17,"",0.0270,""
"GSWS09_121",2016-09-16 12:29:30,186,109.00,"",121,61530.0,1,"",18,"",0.0250,""
"GSWS09_121",2016-09-17 01:47:30,187,109.00,"",121,61530.0,1,"",19,"",0.0260,""
"GSWS09_121",2016-09-17 15:05:30,188,109.00,"",121,61530.0,1,"",20,"",0.0160,""
"GSWS09_121",2016-09-18 04:23:30,189,109.00,"",121,61530.0,1,"",21,"",0.0320,""
"GSWS09_121",2016-09-18 17:41:30,190,109.00,"",121,61530.0,1,"",22,"",0.0530,""
"GSWS09_121",2016-09-19 06:59:30,191,109.00,"",121,61530.0,1,"",23,"",0.0480,""
"GSWS09_121",2016-09-19 18:20:30,192,109.00,"",121,25598.0,0,"",24,"",0.0010,""
"GSWS09_121",2016-09-20 07:38:30,193,109.00,"",121,25598.0,0,"",25,"",0.0010,""
"GSWS09_121",2016-09-20 20:56:30,194,109.00,"",121,25598.0,0,"",26,"",0.0030,""
"GSWS09_121",2016-09-21 10:14:30,195,109.00,"",121,25598.0,0,"",27,"",0.0010,""
"GSWS09_121",2016-09-21 23:32:30,196,109.00,"",121,25598.0,0,"",28,"",0.0140,""
"GSWS09_121",2016-09-22 12:50:30,197,109.00,"",121,25598.0,0,"",29,"",0.0080,""
"GSWS09_121",2016-09-23 02:08:30,198,109.00,"",121,25598.0,0,"",30,"",0.0070,""
"GSWS09_121",2016-09-23 15:26:30,199,109.00,"",121,25598.0,0,"",31,"",0.0070,""
"GSWS09_121",2016-09-24 04:44:30,200,109.00,"",121,25598.0,0,"",32,"",0.0050,""
"GSWS09_121",2016-09-24 18:02:30,201,109.00,"",121,25598.0,0,"",33,"",0.0050,""
"GSWS09_121",2016-09-25 07:20:30,202,109.00,"",121,25598.0,0,"",34,"",0.0040,""
"GSWS09_121",2016-09-25 20:38:30,203,109.00,"",121,25598.0,0,"",35,"",0.0050,""
"GSWS09_121",2016-09-26 09:56:30,204,109.00,"",121,25598.0,0,"",36,"",0.0040,""
"GSWS09_121",2016-09-26 23:14:30,205,109.00,"",121,25598.0,0,"",37,"",0.0030,""
"GSWS09_121",2016-09-27 09:38:45,206,109.00,"",121,25598.0,0,"",38,"",0.0010,""
"GSWS09_121",2016-09-27 12:32:30,207,109.00,"",121,25598.0,0,"",1,"",0.0010,""
"GSWS09_121",2016-09-28 01:50:30,208,109.00,"",121,25598.0,0,"",2,"",0.0010,""
"GSWS09_121",2016-09-28 15:08:30,209,109.00,"",121,25598.0,0,"",3,"",0.0010,""
"GSWS09_121",2016-09-29 04:26:30,210,109.00,"",121,25598.0,0,"",4,"",0.0010,""
"GSWS09_121",2016-09-29 17:44:30,211,109.00,"",121,25598.0,0,"",5,"",0.0010,""
"GSWS09_121",2016-09-30 07:02:30,212,109.00,"",121,25598.0,0,"",6,"",0.0010,""
"GSWS09_121",2016-09-30 20:20:30,213,109.00,"",121,25598.0,0,"",7,"",0.0010,""
